SIF796 OPLA-OMAA

Flight info

Callsign SIF796
Flight time N/A
Altitude 36000
Route VEREN J166 NITIV G214 PG G665 ASVIB N312 MOBET M324 PATAT L519 IVOXI Q311 EMERU
Aircraft A320/M-SDE3FGHIRWY/LB1

Departure

Time 2026-05-08 09:14
Airport Allama Iqbal International Airport (OPLA)

Arrival

Time N/A
Airport Zayed International Airport (OMAA)
Time Latitude Longitude Altitude Speed Heading
2026-05-08 09:03 31.52125 74.40764 722 ft 0 kts 269°
2026-05-08 09:06 31.52125 74.40766 722 ft 2 kts 269°
2026-05-08 09:06 31.52121 74.40794 731 ft 4 kts 303°
2026-05-08 09:06 31.52105 74.40815 721 ft 1 kts 317°
2026-05-08 09:09 31.52108 74.40813 722 ft 1 kts 317°
2026-05-08 09:09 31.52115 74.40810 722 ft 1 kts 355°
2026-05-08 09:09 31.52126 74.40813 724 ft 3 kts 21°
2026-05-08 09:09 31.52152 74.40827 724 ft 6 kts 25°
2026-05-08 09:10 31.52199 74.40844 724 ft 8 kts
2026-05-08 09:10 31.52268 74.40845 723 ft 11 kts 359°
2026-05-08 09:10 31.52357 74.40843 722 ft 14 kts 356°
2026-05-08 09:10 31.52405 74.40754 722 ft 15 kts 272°
2026-05-08 09:11 31.52466 74.40673 722 ft 16 kts 355°
2026-05-08 09:11 31.52588 74.40675 722 ft 19 kts
2026-05-08 09:11 31.52725 74.40675 723 ft 21 kts
2026-05-08 09:11 31.52875 74.40678 723 ft 22 kts
2026-05-08 09:12 31.53033 74.40683 722 ft 23 kts
2026-05-08 09:12 31.53135 74.40628 722 ft 14 kts 263°
2026-05-08 09:12 31.53060 74.40555 722 ft 16 kts 214°
2026-05-08 09:12 31.52950 74.40480 723 ft 22 kts 197°
2026-05-08 09:13 31.52630 74.40467 722 ft 77 kts 181°
2026-05-08 09:13 31.51903 74.40453 725 ft 129 kts 181°
2026-05-08 09:13 31.50870 74.40436 725 ft 168 kts 181°
2026-05-08 09:13 31.49651 74.40383 1161 ft 175 kts 182°
2026-05-08 09:14 31.48453 74.40295 1736 ft 172 kts 184°
2026-05-08 09:14 31.47266 74.40198 2302 ft 173 kts 183°
2026-05-08 09:14 31.46014 74.40100 2546 ft 191 kts 183°
2026-05-08 09:14 31.44661 74.39718 2674 ft 213 kts 210°
2026-05-08 09:15 31.43544 74.38502 2832 ft 234 kts 230°
2026-05-08 09:15 31.42446 74.36959 3027 ft 258 kts 230°
2026-05-08 09:15 31.41267 74.35299 3501 ft 270 kts 230°
2026-05-08 09:15 31.40055 74.33588 4208 ft 274 kts 230°
2026-05-08 09:16 31.38829 74.31857 4964 ft 277 kts 230°
2026-05-08 09:16 31.37589 74.30112 5707 ft 280 kts 232°
2026-05-08 09:16 31.36339 74.28349 6426 ft 284 kts 231°
2026-05-08 09:16 31.35071 74.26557 7102 ft 287 kts 232°
2026-05-08 09:17 31.33792 74.24750 7798 ft 291 kts 232°
2026-05-08 09:17 31.32495 74.22927 8502 ft 294 kts 232°
2026-05-08 09:17 31.31176 74.21071 9199 ft 297 kts 232°
2026-05-08 09:17 31.29847 74.19201 9877 ft 301 kts 233°
2026-05-08 09:18 31.28474 74.17267 10136 ft 321 kts 233°
2026-05-08 09:18 31.27019 74.15215 10244 ft 343 kts 232°
2026-05-08 09:18 31.25431 74.12979 10379 ft 363 kts 232°
2026-05-08 09:18 31.23768 74.10644 10488 ft 382 kts 232°
2026-05-08 09:19 31.22059 74.08248 10618 ft 398 kts 232°
2026-05-08 09:19 31.20236 74.05697 10878 ft 408 kts 232°
2026-05-08 09:19 31.18405 74.03142 11364 ft 412 kts 232°
2026-05-08 09:19 31.16580 74.00597 11844 ft 415 kts 232°
2026-05-08 09:20 31.14724 73.98009 12377 ft 416 kts 232°
2026-05-08 09:20 31.13488 73.96284 12724 ft 418 kts 232°
2026-05-08 09:20 31.10986 73.92791 13400 ft 421 kts 232°
2026-05-08 09:20 31.09739 73.91052 13717 ft 423 kts 232°
2026-05-08 09:21 31.07849 73.88416 14148 ft 426 kts 233°
2026-05-08 09:21 31.05940 73.85753 14564 ft 429 kts 233°
2026-05-08 09:22 30.94250 73.69488 17055 ft 444 kts 233°
2026-05-08 09:23 30.92278 73.66760 17442 ft 447 kts 233°
2026-05-08 09:23 30.90266 73.63977 17823 ft 450 kts 232°
2026-05-08 09:23 30.88244 73.61183 18238 ft 452 kts 233°
2026-05-08 09:23 30.86213 73.58375 18598 ft 454 kts 232°
2026-05-08 09:24 30.84173 73.55553 18958 ft 456 kts 232°
2026-05-08 09:24 30.82126 73.52723 19314 ft 459 kts 232°
2026-05-08 09:24 30.80069 73.49882 19681 ft 461 kts 232°
2026-05-08 09:24 30.77997 73.47020 20039 ft 463 kts 232°
2026-05-08 09:25 30.75920 73.44151 20381 ft 465 kts 232°
2026-05-08 09:25 30.73827 73.41264 20714 ft 467 kts 232°
2026-05-08 09:25 30.71750 73.38403 21039 ft 469 kts 232°
2026-05-08 09:25 30.69645 73.35513 21499 ft 467 kts 232°
2026-05-08 09:26 30.67547 73.32641 21971 ft 466 kts 232°
2026-05-08 09:26 30.65461 73.29785 22399 ft 465 kts 232°
2026-05-08 09:26 30.63373 73.26917 22844 ft 464 kts 232°
2026-05-08 09:26 30.61343 73.24128 23284 ft 464 kts 232°
2026-05-08 09:27 30.59180 73.21157 23702 ft 463 kts 232°
2026-05-08 09:27 30.57097 73.18298 24094 ft 462 kts 233°
2026-05-08 09:27 30.55029 73.15467 24498 ft 461 kts 233°
2026-05-08 09:27 30.52953 73.12629 24902 ft 460 kts 233°
2026-05-08 09:28 30.50886 73.09803 25297 ft 459 kts 233°
2026-05-08 09:28 30.48820 73.06976 25718 ft 459 kts 233°
2026-05-08 09:28 30.46756 73.04155 26140 ft 458 kts 233°
2026-05-08 09:28 30.44692 73.01343 26568 ft 457 kts 234°
2026-05-08 09:29 30.42637 72.98546 26998 ft 456 kts 234°
2026-05-08 09:29 30.40579 72.95741 27429 ft 455 kts 234°
2026-05-08 09:29 30.38529 72.92950 27827 ft 455 kts 235°
2026-05-08 09:29 30.36483 72.90163 28255 ft 454 kts 235°
2026-05-08 09:30 30.34465 72.87415 28695 ft 453 kts 235°
2026-05-08 09:30 30.32425 72.84642 29137 ft 452 kts 236°
2026-05-08 09:30 30.30380 72.81865 29586 ft 451 kts 236°
2026-05-08 09:30 30.28350 72.79109 29998 ft 451 kts 236°
2026-05-08 09:31 30.26318 72.76357 30371 ft 450 kts 236°
2026-05-08 09:31 30.24274 72.73595 30736 ft 449 kts 236°
2026-05-08 09:31 30.22242 72.70849 31109 ft 448 kts 236°
2026-05-08 09:31 30.20220 72.68114 31478 ft 447 kts 237°
2026-05-08 09:32 30.18202 72.65384 31852 ft 447 kts 237°
2026-05-08 09:32 30.16182 72.62654 32228 ft 446 kts 237°
2026-05-08 09:32 30.14169 72.59938 32581 ft 445 kts 237°
2026-05-08 09:32 30.12148 72.57210 32904 ft 446 kts 237°
2026-05-08 09:33 30.10134 72.54493 33235 ft 446 kts 237°
2026-05-08 09:33 30.08115 72.51775 33584 ft 445 kts 237°
2026-05-08 09:33 30.06122 72.49099 33895 ft 445 kts 237°
2026-05-08 09:33 30.04105 72.46392 34172 ft 444 kts 238°
2026-05-08 09:34 30.02091 72.43690 34446 ft 443 kts 238°
2026-05-08 09:34 30.00082 72.40994 34719 ft 442 kts 238°
2026-05-08 09:34 29.98082 72.38312 34983 ft 441 kts 238°
2026-05-08 09:34 29.96076 72.35622 35248 ft 440 kts 238°
2026-05-08 09:35 29.94080 72.32943 35510 ft 439 kts 238°
2026-05-08 09:35 29.92089 72.30268 35722 ft 439 kts 238°
2026-05-08 09:35 29.90091 72.27588 35781 ft 442 kts 238°
2026-05-08 09:36 29.86033 72.22137 35782 ft 453 kts 238°
2026-05-08 09:36 29.81873 72.16580 35781 ft 461 kts 238°
2026-05-08 09:37 29.77693 72.11022 35773 ft 462 kts 238°
2026-05-08 09:37 29.73487 72.05428 35774 ft 462 kts 238°
2026-05-08 09:38 29.69282 71.99849 35778 ft 462 kts 238°
2026-05-08 09:38 29.65077 71.94257 35781 ft 462 kts 238°
2026-05-08 09:39 29.60872 71.88682 35765 ft 462 kts 238°
2026-05-08 09:39 29.57223 71.82796 35769 ft 437 kts 257°
2026-05-08 09:40 29.55390 71.76242 35775 ft 430 kts 262°
2026-05-08 09:40 29.53650 71.69663 35769 ft 430 kts 261°
2026-05-08 09:41 29.51916 71.63132 35776 ft 430 kts 261°
2026-05-08 09:41 29.50159 71.56560 35777 ft 431 kts 261°
2026-05-08 09:42 29.48393 71.49994 35778 ft 430 kts 261°
2026-05-08 09:42 29.46633 71.43456 35788 ft 428 kts 261°
2026-05-08 09:43 29.44877 71.36927 35790 ft 428 kts 261°
2026-05-08 09:43 29.43118 71.30405 35793 ft 427 kts 261°
2026-05-08 09:44 29.41357 71.23893 35788 ft 427 kts 261°
2026-05-08 09:44 29.39593 71.17388 35787 ft 427 kts 261°
2026-05-08 09:45 29.37820 71.10890 35779 ft 427 kts 261°
2026-05-08 09:45 29.36048 71.04398 35779 ft 427 kts 261°
2026-05-08 09:46 29.34281 70.97946 35780 ft 427 kts 261°
2026-05-08 09:46 29.32496 70.91442 35780 ft 427 kts 261°
2026-05-08 09:47 29.30715 70.84945 35764 ft 427 kts 261°
2026-05-08 09:47 29.28942 70.78457 35768 ft 426 kts 261°
2026-05-08 09:48 29.27163 70.71981 35780 ft 426 kts 261°
2026-05-08 09:48 29.25375 70.65513 35776 ft 426 kts 261°
2026-05-08 09:49 29.23587 70.59051 35776 ft 425 kts 261°
2026-05-08 09:49 29.21813 70.52631 35751 ft 425 kts 261°
2026-05-08 09:50 29.20026 70.46180 35767 ft 424 kts 261°
2026-05-08 09:50 29.18236 70.39737 35769 ft 424 kts 261°
2026-05-08 09:51 29.16444 70.33304 35772 ft 424 kts 261°
2026-05-08 09:51 29.14653 70.26892 35774 ft 424 kts 261°
2026-05-08 09:52 29.12847 70.20455 35774 ft 424 kts 261°
2026-05-08 09:52 29.11043 70.14027 35776 ft 424 kts 261°
2026-05-08 09:53 29.09243 70.07602 35776 ft 424 kts 261°
2026-05-08 09:53 29.07436 70.01178 35787 ft 424 kts 261°
2026-05-08 09:54 29.05609 69.94762 35787 ft 424 kts 261°
2026-05-08 09:54 29.03782 69.88409 35796 ft 424 kts 261°
2026-05-08 09:55 29.01936 69.82019 35776 ft 424 kts 261°
2026-05-08 09:55 29.00096 69.75620 35795 ft 423 kts 261°
2026-05-08 09:56 28.98258 69.69223 35796 ft 423 kts 261°
2026-05-08 09:56 28.96427 69.62877 35809 ft 424 kts 261°
2026-05-08 09:57 28.93655 69.53277 35809 ft 424 kts 261°
2026-05-08 09:57 28.91798 69.46886 35795 ft 424 kts 260°
2026-05-08 09:58 28.89945 69.40506 35798 ft 423 kts 260°
2026-05-08 09:58 28.88086 69.34132 35797 ft 423 kts 260°
2026-05-08 09:59 28.86224 69.27759 35785 ft 423 kts 260°
2026-05-08 09:59 28.84356 69.21386 35782 ft 424 kts 260°
2026-05-08 10:00 28.82495 69.15051 35766 ft 424 kts 260°
2026-05-08 10:00 28.80626 69.08679 35771 ft 424 kts 259°
2026-05-08 10:01 28.78751 69.02303 35776 ft 424 kts 259°
2026-05-08 10:01 28.76869 68.95931 35773 ft 424 kts 259°
2026-05-08 10:02 28.74987 68.89559 35773 ft 424 kts 259°
2026-05-08 10:02 28.73100 68.83187 35757 ft 424 kts 259°
2026-05-08 10:03 28.71222 68.76826 35763 ft 423 kts 259°
2026-05-08 10:03 28.69339 68.70463 35752 ft 423 kts 259°
2026-05-08 10:04 28.67462 68.64160 35752 ft 423 kts 259°
2026-05-08 10:04 28.65569 68.57806 35745 ft 423 kts 259°
2026-05-08 10:05 28.63675 68.51469 35726 ft 423 kts 259°
2026-05-08 10:05 28.61775 68.45126 35706 ft 423 kts 259°
2026-05-08 10:06 28.59889 68.38818 35709 ft 424 kts 259°
2026-05-08 10:06 28.57984 68.32464 35714 ft 425 kts 259°
2026-05-08 10:07 28.56064 68.26088 35719 ft 425 kts 259°
2026-05-08 10:07 28.54151 68.19764 35725 ft 425 kts 258°
2026-05-08 10:08 28.52225 68.13406 35716 ft 425 kts 258°
2026-05-08 10:08 28.50623 68.08120 35721 ft 426 kts 258°
2026-05-08 10:09 28.48697 68.01763 35727 ft 426 kts 258°
2026-05-08 10:09 28.46760 67.95385 35728 ft 426 kts 258°
2026-05-08 10:10 28.44510 67.87982 35729 ft 426 kts 258°
2026-05-08 10:10 28.42897 67.82690 35729 ft 426 kts 258°
2026-05-08 10:11 28.40946 67.76332 35732 ft 426 kts 258°
2026-05-08 10:11 28.39000 67.69969 35745 ft 426 kts 258°
2026-05-08 10:12 28.37056 67.63606 35734 ft 426 kts 258°
2026-05-08 10:12 28.35096 67.57241 35733 ft 427 kts 258°
2026-05-08 10:13 28.33146 67.50923 35746 ft 426 kts 258°
2026-05-08 10:13 28.31182 67.44558 35750 ft 427 kts 258°
2026-05-08 10:14 28.29219 67.38197 35777 ft 427 kts 258°
2026-05-08 10:14 28.27247 67.31850 35779 ft 426 kts 258°
2026-05-08 10:15 28.25283 67.25517 35794 ft 427 kts 257°
2026-05-08 10:15 28.23315 67.19176 35770 ft 426 kts 257°
2026-05-08 10:16 28.21343 67.12832 35809 ft 426 kts 257°
2026-05-08 10:16 28.19382 67.06539 35806 ft 426 kts 257°
2026-05-08 10:17 28.17397 67.00200 35825 ft 426 kts 257°